Windom, MN

9:45 PM CDT on October 16, 2017 (GMT -0500)
Windom Municipal

Weather History for KMWM - July, 2014

Change the Weather History Date:

Thursday, July 3, 2014

  Actual Average Record
Temperature  
Mean Temperature 62 °F -  
Max Temperature 75 °F 83 °F 98 °F (1949)
Min Temperature 50 °F 61 °F 46 °F (2015)
Degree Days  
Heating Degree Days 2    
Growing Degree Days 12 (Base 50)    
Moisture  
Dew Point 48 °F    
Average Humidity 60    
Maximum Humidity 94    
Minimum Humidity 36    
Precipitation  
Precipitation 0.00 in - - ()
Sea Level Pressure  
Sea Level Pressure 30.20 in    
Wind  
Wind Speed 3 mph (NNW)    
Max Wind Speed 8 mph    
Max Gust Speed -    
Visibility 10 miles    
Events      
Averages and records for this station are not official NWS values.
T = Trace of Precipitation, MM = Missing Value Source: NWS Daily Summary

Daily Weather History Graph

Daily Weather History Graph

Search for Another Location

Airport or City:

Trip Planner

Search our weather history database for the weather conditions in past years. The results will help you decide how hot, cold, wet, or windy it might be!

Date:

Astronomy

Jul. 03, 2014 Rise Set
Actual Time 5:42 AM CDT 9:06 PM CDT
Civil Twilight 5:07 AM CDT 9:42 PM CDT
Nautical Twilight 4:20 AM CDT 10:28 PM CDT
Astronomical Twilight 3:21 AM CDT 11:27 PM CDT
Moon 11:56 AM CDT (7/3) No Moon Set
Length of Visible Light 16h 35m
Length of Day
15h 23m
Waxing Crescent, 33% of the Moon is Illuminated
Jul 3
Waxing Crescent
Jul 5
First Quarter
Jul 12
Full
Jul 18
Last Quarter
Jul 26
New

Hourly Weather History & Observations

Time (CDT) Temp. Dew Point Humidity Pressure Visibility Wind Dir Wind Speed Gust Speed Precip Events Conditions
12:14 AM 55.4 °F 48.2 °F 77% 30.15 in 10.0 mi Calm Calm - N/A   Clear
12:33 AM 55.4 °F 48.2 °F 77% 30.15 in 10.0 mi Calm Calm - N/A   Clear
12:54 AM 55.4 °F 48.2 °F 77% 30.15 in 10.0 mi West 3.5 mph - N/A   Clear
1:13 AM 53.6 °F 48.2 °F 82% 30.15 in 10.0 mi West 5.8 mph - N/A   Mostly Cloudy
1:33 AM 51.8 °F 48.2 °F 88% 30.15 in 10.0 mi WNW 4.6 mph - N/A   Scattered Clouds
1:54 AM 51.8 °F 48.2 °F 88% 30.15 in 10.0 mi Calm Calm - N/A   Clear
2:13 AM 53.6 °F 48.2 °F 82% 30.15 in 10.0 mi Calm Calm - N/A   Clear
2:34 AM 53.6 °F 48.2 °F 82% 30.15 in 10.0 mi Calm Calm - N/A   Scattered Clouds
2:53 AM 53.6 °F 48.2 °F 82% 30.15 in 10.0 mi Calm Calm - N/A   Scattered Clouds
3:13 AM 51.8 °F 48.2 °F 88% 30.15 in 10.0 mi Calm Calm - N/A   Scattered Clouds
3:34 AM 50.0 °F 46.4 °F 87% 30.15 in 10.0 mi Calm Calm - N/A   Scattered Clouds
3:53 AM 50.0 °F 46.4 °F 87% 30.15 in 10.0 mi Calm Calm - N/A   Clear
4:13 AM 51.8 °F 48.2 °F 88% 30.16 in 10.0 mi Calm Calm - N/A   Clear
4:34 AM 50.0 °F 48.2 °F 94% 30.16 in 10.0 mi WNW 4.6 mph - N/A   Clear
4:53 AM 50.0 °F 46.4 °F 87% 30.17 in 10.0 mi West 5.8 mph - N/A   Clear
5:13 AM 50.0 °F 46.4 °F 87% 30.17 in 10.0 mi West 5.8 mph - N/A   Scattered Clouds
5:34 AM 51.8 °F 48.2 °F 88% 30.18 in 10.0 mi West 4.6 mph - N/A   Mostly Cloudy
5:53 AM 51.8 °F 46.4 °F 82% 30.19 in 10.0 mi Calm Calm - N/A   Mostly Cloudy
6:13 AM 51.8 °F 46.4 °F 82% 30.19 in 10.0 mi West 4.6 mph - N/A   Clear
6:34 AM 51.8 °F 48.2 °F 88% 30.20 in 10.0 mi West 4.6 mph - N/A   Clear
6:53 AM 51.8 °F 48.2 °F 88% 30.21 in 10.0 mi Calm Calm - N/A   Clear
7:13 AM 53.6 °F 48.2 °F 82% 30.21 in 10.0 mi Calm Calm - N/A   Mostly Cloudy
7:34 AM 55.4 °F 51.8 °F 88% 30.21 in 10.0 mi West 4.6 mph - N/A   Overcast
7:53 AM 57.2 °F 51.8 °F 82% 30.22 in 10.0 mi WNW 3.5 mph - N/A   Overcast
8:14 AM 60.8 °F 51.8 °F 72% 30.22 in 10.0 mi West 3.5 mph - N/A   Overcast
8:53 AM 64.4 °F 51.8 °F 64% 30.22 in 10.0 mi WNW 4.6 mph - N/A   Mostly Cloudy
9:14 AM 66.2 °F 50.0 °F 56% 30.22 in 10.0 mi WNW 4.6 mph - N/A   Scattered Clouds
9:34 AM 66.2 °F 48.2 °F 52% 30.22 in 10.0 mi WNW 4.6 mph - N/A   Scattered Clouds
9:53 AM 68.0 °F 48.2 °F 49% 30.22 in 10.0 mi NW 4.6 mph - N/A   Scattered Clouds
10:14 AM 69.8 °F 44.6 °F 40% 30.23 in 10.0 mi NW 3.5 mph - N/A   Scattered Clouds
10:34 AM 69.8 °F 44.6 °F 40% 30.23 in 10.0 mi West 5.8 mph - N/A   Mostly Cloudy
10:53 AM 69.8 °F 44.6 °F 40% 30.23 in 10.0 mi North 6.9 mph - N/A   Mostly Cloudy
11:14 AM 69.8 °F 46.4 °F 43% 30.22 in 10.0 mi North 6.9 mph - N/A   Scattered Clouds
11:34 AM 71.6 °F 46.4 °F 41% 30.22 in 10.0 mi NNW 3.5 mph - N/A   Clear
11:53 AM 71.6 °F 46.4 °F 41% 30.22 in 10.0 mi NNW 4.6 mph - N/A   Clear
12:14 PM 71.6 °F 46.4 °F 41% 30.22 in 10.0 mi NNE 8.1 mph - N/A   Clear
12:33 PM 69.8 °F 46.4 °F 43% 30.22 in 10.0 mi NNE 6.9 mph - N/A   Clear
12:53 PM 71.6 °F 46.4 °F 41% 30.22 in 10.0 mi NNE 6.9 mph - N/A   Scattered Clouds
1:13 PM 71.6 °F 44.6 °F 38% 30.22 in 10.0 mi North 4.6 mph - N/A   Scattered Clouds
1:34 PM 71.6 °F 46.4 °F 41% 30.22 in 10.0 mi North 3.5 mph - N/A   Scattered Clouds
1:53 PM 73.4 °F 46.4 °F 38% 30.22 in 10.0 mi WNW 6.9 mph - N/A   Scattered Clouds
2:13 PM 71.6 °F 44.6 °F 38% 30.21 in 10.0 mi NNW 8.1 mph - N/A   Clear
2:34 PM 73.4 °F 46.4 °F 38% 30.21 in 10.0 mi WNW 8.1 mph - N/A   Clear
2:53 PM 73.4 °F 48.2 °F 41% 30.21 in 10.0 mi North 5.8 mph - N/A   Clear
3:13 PM 73.4 °F 44.6 °F 36% 30.21 in 10.0 mi NW 3.5 mph - N/A   Clear
3:34 PM 73.4 °F 44.6 °F 36% 30.20 in 10.0 mi North 3.5 mph - N/A   Clear
3:53 PM 73.4 °F 44.6 °F 36% 30.20 in 10.0 mi WSW 6.9 mph - N/A   Clear
4:13 PM 73.4 °F 46.4 °F 38% 30.20 in 10.0 mi NNE 6.9 mph - N/A   Clear
4:34 PM 71.6 °F 44.6 °F 38% 30.20 in 10.0 mi East 3.5 mph - N/A   Clear
4:54 PM 73.4 °F 46.4 °F 38% 30.20 in 10.0 mi North 4.6 mph - N/A   Scattered Clouds
5:13 PM 75.2 °F 46.4 °F 36% 30.20 in 10.0 mi North 3.5 mph - N/A   Scattered Clouds
5:34 PM 73.4 °F 44.6 °F 36% 30.20 in 10.0 mi Calm Calm - N/A   Clear
5:54 PM 73.4 °F 46.4 °F 38% 30.19 in 10.0 mi Calm Calm - N/A   Clear
6:13 PM 73.4 °F 46.4 °F 38% 30.19 in 10.0 mi Calm Calm - N/A   Clear
6:34 PM 73.4 °F 46.4 °F 38% 30.19 in 10.0 mi SSW 5.8 mph - N/A   Clear
6:53 PM 73.4 °F 44.6 °F 36% 30.19 in 10.0 mi Calm Calm - N/A   Clear
7:14 PM 73.4 °F 44.6 °F 36% 30.19 in 10.0 mi Calm Calm - N/A   Clear
7:34 PM 73.4 °F 48.2 °F 41% 30.19 in 10.0 mi Calm Calm - N/A   Clear
7:53 PM 73.4 °F 46.4 °F 38% 30.19 in 10.0 mi Calm Calm - N/A   Clear
8:14 PM 69.8 °F 50.0 °F 49% 30.20 in 10.0 mi East 4.6 mph - N/A   Clear
8:34 PM 69.8 °F 51.8 °F 53% 30.20 in 10.0 mi East 3.5 mph - N/A   Clear
8:53 PM 68.0 °F 51.8 °F 56% 30.19 in 10.0 mi East 3.5 mph - N/A   Clear
9:14 PM 64.4 °F 51.8 °F 64% 30.20 in 10.0 mi ESE 4.6 mph - N/A   Clear
9:33 PM 62.6 °F 51.8 °F 68% 30.20 in 10.0 mi East 5.8 mph - N/A   Clear
9:54 PM 64.4 °F 50.0 °F 59% 30.21 in 10.0 mi East 4.6 mph - N/A   Clear
10:13 PM 62.6 °F 50.0 °F 63% 30.21 in 10.0 mi ESE 6.9 mph - N/A   Clear
10:33 PM 62.6 °F 50.0 °F 63% 30.21 in 10.0 mi ESE 5.8 mph - N/A   Clear
10:54 PM 62.6 °F 50.0 °F 63% 30.22 in 10.0 mi ESE 6.9 mph - N/A   Clear
11:13 PM 60.8 °F 50.0 °F 68% 30.22 in 10.0 mi ESE 5.8 mph - N/A   Clear
11:33 PM 60.8 °F 50.0 °F 68% 30.22 in 10.0 mi ESE 6.9 mph - N/A   Clear
11:54 PM 60.8 °F 50.0 °F 68% 30.23 in 10.0 mi SE 3.5 mph - N/A   Clear